Weather History for KDUX - May, 2012

Change the Weather History Date:

Wednesday, May 30, 2012

  Actual Average (KBGD) Record (KBGD)
Temperature  
Mean Temperature 68 °F 72 °F  
Max Temperature 87 °F 85 °F 101 °F (2003)
Min Temperature 50 °F 60 °F 46 °F (1983)
Degree Days  
Heating Degree Days 0 0  
Month to date heating degree days 60  
Since 1 July heating degree days 3763  
Cooling Degree Days 4 8  
Month to date cooling degree days 146  
Year to date cooling degree days 190  
Growing Degree Days 18 (Base 50)    
Moisture  
Dew Point 50 °F    
Average Humidity 54    
Maximum Humidity 94    
Minimum Humidity 16    
Precipitation  
Precipitation 0.00 in 0.13 in 1.52 in (1991)
Month to date precipitation 2.75  
Year to date precipitation 6.91  
Snow  
Snow 0.00 in - T in (1997)
Month to date snowfall  
Since 1 July snowfall  
Snow Depth -    
Sea Level Pressure  
Sea Level Pressure 29.87 in    
Wind  
Wind Speed 7 mph (NE)    
Max Wind Speed 15 mph    
Max Gust Speed 17 mph    
Visibility 9 miles    
Events      
T = Trace of Precipitation, MM = Missing Value Source: NWS Daily Summary

Daily Weather History Graph

Daily Weather History Graph

Search for Another Location

Airport or City:

Trip Planner

Search our weather history database for the weather conditions in past years. The results will help you decide how hot, cold, wet, or windy it might be!

Date:

Astronomy

May. 30, 2012 Rise Set
Actual Time 6:33 AM CDT 8:58 PM CDT
Civil Twilight 6:04 AM CDT 9:27 PM CDT
Nautical Twilight 5:27 AM CDT 10:04 PM CDT
Astronomical Twilight 4:47 AM CDT 10:44 PM CDT
Moon 3:47 PM CDT (5/30) 2:49 AM CDT (5/30)
Length of Visible Light 15h 23m
Length of Day
14h 24m
Waxing Gibbous, 70% of the Moon is Illuminated
May 30
Waxing Gibbous
Jun 4
Full
Jun 11
Last Quarter
Jun 19
New
Jun 26
First Quarter

Hourly Weather History & Observations

Time (CDT) Temp. Heat Index Dew Point Humidity Pressure Visibility Wind Dir Wind Speed Gust Speed Precip Events Conditions
12:15 AM 71.6 °F - 50.0 °F 46% 29.92 in 10.0 mi ENE 11.5 mph 16.1 mph N/A   Clear
12:35 AM 69.8 °F - 50.0 °F 49% 29.92 in 10.0 mi ENE 9.2 mph - N/A   Clear
12:55 AM 68.0 °F - 50.0 °F 52% 29.93 in 10.0 mi NE 5.8 mph - N/A   Clear
1:15 AM 68.0 °F - 51.8 °F 56% 29.92 in 10.0 mi NE 6.9 mph - N/A   Clear
1:35 AM 66.2 °F - 51.8 °F 60% 29.91 in 10.0 mi ENE 6.9 mph - N/A   Clear
1:55 AM 64.4 °F - 51.8 °F 64% 29.91 in 10.0 mi ENE 8.1 mph - N/A   Clear
2:15 AM 62.6 °F - 51.8 °F 68% 29.90 in 10.0 mi ENE 6.9 mph - N/A   Clear
2:35 AM 60.8 °F - 51.8 °F 72% 29.91 in 10.0 mi ENE 9.2 mph - N/A   Clear
2:55 AM 60.8 °F - 51.8 °F 72% 29.90 in 10.0 mi NE 4.6 mph - N/A   Clear
3:15 AM 59.0 °F - 51.8 °F 77% 29.90 in 10.0 mi North 4.6 mph - N/A   Clear
3:35 AM 55.4 °F - 50.0 °F 82% 29.90 in 10.0 mi NE 4.6 mph - N/A   Clear
3:55 AM 55.4 °F - 51.8 °F 88% 29.89 in 10.0 mi NE 4.6 mph - N/A   Clear
4:15 AM 53.6 °F - 50.0 °F 88% 29.89 in 10.0 mi NNW 3.5 mph - N/A   Clear
4:35 AM 53.6 °F - 50.0 °F 88% 29.89 in 10.0 mi NNW 4.6 mph - N/A   Clear
4:55 AM 51.8 °F - 46.4 °F 82% 29.89 in 10.0 mi NNW 5.8 mph - N/A   Clear
5:15 AM 51.8 °F - 50.0 °F 94% 29.89 in 10.0 mi North 8.1 mph - N/A   Clear
5:35 AM 51.8 °F - 48.2 °F 88% 29.90 in 10.0 mi North 5.8 mph - N/A   Clear
5:55 AM 50.0 °F - 48.2 °F 94% 29.90 in 7.0 mi NNW 8.1 mph - N/A   Clear
6:15 AM 50.0 °F - 46.4 °F 87% 29.91 in 7.0 mi North 6.9 mph - N/A   Clear
6:35 AM 50.0 °F - 48.2 °F 94% 29.91 in 5.0 mi North 5.8 mph - N/A   Clear
6:55 AM 51.8 °F - 50.0 °F 94% 29.91 in 5.0 mi North 4.6 mph - N/A   Mostly Cloudy
7:15 AM 53.6 °F - 51.8 °F 94% 29.91 in 5.0 mi NNE 4.6 mph - N/A   Overcast
7:35 AM 57.2 °F - 53.6 °F 88% 29.92 in 7.0 mi NE 4.6 mph - N/A   Overcast
7:55 AM 60.8 °F - 55.4 °F 82% 29.92 in 7.0 mi ENE 8.1 mph - N/A   Overcast
8:15 AM 60.8 °F - 57.2 °F 88% 29.92 in 7.0 mi NNE 8.1 mph - N/A   Overcast
8:35 AM 62.6 °F - 59.0 °F 88% 29.92 in 5.0 mi NE 5.8 mph - N/A   Overcast
8:55 AM 62.6 °F - 59.0 °F 88% 29.92 in 5.0 mi NNE 5.8 mph - N/A   Overcast
9:15 AM 64.4 °F - 59.0 °F 83% 29.92 in 5.0 mi NE 4.6 mph - N/A   Haze
9:35 AM 66.2 °F - 60.8 °F 83% 29.92 in 7.0 mi East 5.8 mph - N/A   Mostly Cloudy
9:55 AM 68.0 °F - 59.0 °F 73% 29.91 in 7.0 mi ENE 5.8 mph - N/A   Scattered Clouds
10:15 AM 69.8 °F - 59.0 °F 68% 29.91 in 10.0 mi East 4.6 mph - N/A   Clear
10:35 AM 69.8 °F - 59.0 °F 68% 29.91 in 10.0 mi ESE 5.8 mph - N/A   Clear
10:55 AM 71.6 °F - 59.0 °F 64% 29.91 in 10.0 mi East 4.6 mph - N/A   Clear
11:15 AM 73.4 °F - 59.0 °F 61% 29.91 in 7.0 mi NE 8.1 mph - N/A   Clear
11:35 AM 73.4 °F - 57.2 °F 57% 29.91 in 10.0 mi ENE 5.8 mph - N/A   Clear
11:55 AM 73.4 °F - 57.2 °F 57% 29.91 in 10.0 mi NE 4.6 mph - N/A   Clear
12:15 PM 75.2 °F - 55.4 °F 50% 29.90 in 10.0 mi East 3.5 mph - N/A   Clear
12:35 PM 77.0 °F - 55.4 °F 47% 29.89 in 10.0 mi ENE 3.5 mph - N/A   Clear
12:55 PM 78.8 °F - 55.4 °F 44% 29.88 in 10.0 mi East 10.4 mph - N/A   Clear
1:15 PM 80.6 °F 80.5 °F 55.4 °F 42% 29.90 in 7.0 mi ENE 4.6 mph - N/A   Clear
1:35 PM 80.6 °F 80.5 °F 55.4 °F 42% 29.89 in 10.0 mi East 9.2 mph - N/A   Clear
1:55 PM 80.6 °F 80.5 °F 55.4 °F 42% 29.88 in 7.0 mi East 8.1 mph - N/A   Clear
2:15 PM 82.4 °F 81.7 °F 55.4 °F 39% 29.87 in 10.0 mi East 4.6 mph - N/A   Clear
2:35 PM 82.4 °F 81.4 °F 53.6 °F 37% 29.87 in 10.0 mi ENE 10.4 mph - N/A   Clear
2:55 PM 82.4 °F - 51.8 °F 35% 29.86 in 10.0 mi NE 8.1 mph - N/A   Clear
3:15 PM 84.2 °F - 50.0 °F 30% 29.86 in 10.0 mi NNE 8.1 mph - N/A   Clear
3:35 PM 84.2 °F - 48.2 °F 29% 29.85 in 10.0 mi North 5.8 mph - N/A   Clear
3:55 PM 86.0 °F - 48.2 °F 27% 29.84 in 10.0 mi East 3.5 mph - N/A   Clear
4:15 PM 86.0 °F - 46.4 °F 25% 29.84 in 10.0 mi North 5.8 mph - N/A   Clear
4:35 PM 86.0 °F - 46.4 °F 25% 29.82 in 10.0 mi NE 3.5 mph - N/A   Clear
4:55 PM 86.0 °F - 41.0 °F 20% 29.82 in 10.0 mi NNW 5.8 mph - N/A   Clear
5:15 PM 87.8 °F - 37.4 °F 17% 29.82 in 10.0 mi North 9.2 mph - N/A   Clear
5:35 PM 87.8 °F - 35.6 °F 16% 29.81 in 10.0 mi North 3.5 mph - N/A   Clear
5:55 PM 87.8 °F - 37.4 °F 17% 29.81 in 10.0 mi North 10.4 mph - N/A   Clear
6:15 PM 87.8 °F - 42.8 °F 21% 29.80 in 10.0 mi North 8.1 mph 17.3 mph N/A   Clear
6:35 PM 87.8 °F - 42.8 °F 21% 29.79 in 10.0 mi North 8.1 mph 17.3 mph N/A   Clear
6:55 PM 87.8 °F - 42.8 °F 21% 29.78 in 10.0 mi North 10.4 mph - N/A   Clear
7:15 PM 86.0 °F - 41.0 °F 20% 29.78 in 10.0 mi ENE 3.5 mph - N/A   Clear
7:35 PM 86.0 °F - 37.4 °F 18% 29.78 in 10.0 mi Calm Calm - N/A   Clear
7:55 PM 86.0 °F - 37.4 °F 18% 29.78 in 10.0 mi Calm Calm - N/A   Clear
8:15 PM 84.2 °F - 41.0 °F 22% 29.78 in 10.0 mi Calm Calm - N/A   Clear
8:35 PM 82.4 °F - 41.0 °F 23% 29.79 in 10.0 mi Calm Calm - N/A   Clear
8:55 PM 80.6 °F - 41.0 °F 24% 29.79 in 10.0 mi East 3.5 mph - N/A   Clear
9:15 PM 80.6 °F - 37.4 °F 21% 29.80 in 10.0 mi ENE 4.6 mph - N/A   Clear
9:35 PM 77.0 °F - 44.6 °F 32% 29.82 in 10.0 mi SE 10.4 mph 16.1 mph N/A   Clear
9:55 PM 75.2 °F - 59.0 °F 57% 29.82 in 10.0 mi SE 9.2 mph - N/A   Clear
10:15 PM 73.4 °F - 60.8 °F 65% 29.84 in 10.0 mi SSE 11.5 mph - N/A   Clear
10:35 PM 73.4 °F - 57.2 °F 57% 29.83 in 10.0 mi SSE 15.0 mph - N/A   Clear
10:55 PM 71.6 °F - 48.2 °F 43% 29.85 in 10.0 mi SSE 10.4 mph - N/A   Clear
11:15 PM 69.8 °F - 46.4 °F 43% 29.86 in 10.0 mi SSE 9.2 mph - N/A   Clear
11:35 PM 69.8 °F - 46.4 °F 43% 29.86 in 10.0 mi SSE 10.4 mph - N/A   Clear
11:55 PM 68.0 °F - 44.6 °F 43% 29.86 in 10.0 mi SSE 10.4 mph - N/A   Clear